| time (UTC) | temp C | wind direction | speed KPH | gust KPH | rain 1hr cm | rain 24hr cm | rain mn cm | humidity % | barometer mb |
| 20260505024034 | 18 | 71 | 11.3 | 24.1 | 0.00 | 0.00 | 0.00 | 77 | 1029.9 |
| 20260505015517 | 19 | 64 | 0.0 | 8.0 | 0.00 | 0.00 | 0.00 | 77 | 1029.9 |
| 20260505012518 | 20 | 157 | 3.2 | 16.1 | 0.00 | 0.00 | 0.00 | 73 | 1030.1 |
| 20260505005019 | 20 | 149 | 3.2 | 12.9 | 0.00 | 0.00 | 0.00 | 75 | 1030.5 |
| 20260505004519 | 20 | 97 | 3.2 | 12.9 | 0.00 | 0.00 | 0.00 | 75 | 1030.5 |
| 20260505004020 | 19 | 81 | 1.6 | 8.0 | 0.00 | 0.00 | 0.00 | 77 | 1030.8 |
| 20260505003600 | 18 | 75 | 3.2 | 16.1 | 0.00 | 0.00 | 0.00 | 77 | 1030.9 |
| 20260505003028 | 18 | 91 | 6.4 | 16.1 | 0.00 | 0.00 | 0.00 | 76 | 1030.9 |
| 20260505002529 | 18 | 147 | 1.6 | 14.5 | 0.00 | 0.00 | 0.00 | 76 | 1031.0 |
| 20260505002028 | 18 | 177 | 4.8 | 16.1 | 0.00 | 0.00 | 0.00 | 76 | 1031.1 |
| 20260505001519 | 18 | 93 | 6.4 | 16.1 | 0.00 | 0.00 | 0.00 | 76 | 1031.1 |
| 20260505001019 | 18 | 97 | 6.4 | 16.1 | 0.00 | 0.00 | 0.00 | 76 | 1031.1 |
| 20260505000530 | 18 | 37 | 4.8 | 17.7 | 0.00 | 0.00 | 0.00 | 77 | 1031.2 |
| 20260505000021 | 18 | 132 | 6.4 | 17.7 | 0.00 | 0.00 | 0.00 | 77 | 1031.3 |
| 20260504235522 | 18 | 81 | 8.0 | 17.7 | 0.00 | 0.00 | 0.00 | 77 | 1031.3 |
| 20260504235018 | 18 | 78 | 12.9 | 17.7 | 0.00 | 0.00 | 0.00 | 77 | 1031.4 |
| 20260504234520 | 18 | 66 | 8.0 | 12.9 | 0.00 | 0.00 | 0.00 | 76 | 1031.4 |
| 20260504230519 | 18 | 82 | 9.7 | 17.7 | 0.00 | 0.00 | 0.00 | 77 | 1031.9 |
| 20260504230032 | 18 | 62 | 8.0 | 16.1 | 0.00 | 0.00 | 0.00 | 77 | 1031.9 |
| 20260504225521 | 18 | 130 | 6.4 | 14.5 | 0.00 | 0.00 | 0.00 | 77 | 1032.0 |
| 20260504225021 | 18 | 91 | 1.6 | 9.7 | 0.00 | 0.00 | 0.00 | 79 | 1032.1 |
| 20260504224522 | 18 | 161 | 3.2 | 14.5 | 0.00 | 0.00 | 0.00 | 79 | 1032.2 |
| 20260504224021 | 17 | 144 | 4.8 | 17.7 | 0.00 | 0.00 | 0.00 | 80 | 1032.2 |
| 20260504223522 | 17 | 91 | 8.0 | 17.7 | 0.00 | 0.00 | 0.00 | 80 | 1032.3 |
| 20260504223021 | 18 | 112 | 6.4 | 12.9 | 0.00 | 0.00 | 0.00 | 79 | 1032.3 |
| 20260504222519 | 17 | 182 | 4.8 | 14.5 | 0.00 | 0.00 | 0.00 | 79 | 1032.4 |
| 20260504222019 | 17 | 79 | 4.8 | 11.3 | 0.00 | 0.00 | 0.00 | 78 | 1032.3 |
| 20260504221521 | 17 | 152 | 3.2 | 9.7 | 0.00 | 0.00 | 0.00 | 77 | 1032.3 |
| 20260504221019 | 18 | 187 | 4.8 | 9.7 | 0.00 | 0.00 | 0.00 | 77 | 1032.3 |
| 20260504220521 | 18 | 170 | 0.0 | 6.4 | 0.00 | 0.00 | 0.00 | 77 | 1032.3 |
| 20260504220021 | 17 | 143 | 0.0 | 0.0 | 0.00 | 0.00 | 0.00 | 77 | 1032.4 |
| 20260504215530 | 17 | 168 | 0.0 | 0.0 | 0.00 | 0.00 | 0.00 | 77 | 1032.4 |
| 20260504215020 | 17 | 148 | 0.0 | 0.0 | 0.00 | 0.00 | 0.00 | 78 | 1032.3 |
| 20260504214531 | 17 | 154 | 0.0 | 0.0 | 0.00 | 0.00 | 0.00 | 79 | 1032.3 |
| 20260504214030 | 17 | 158 | 0.0 | 0.0 | 0.00 | 0.00 | 0.00 | 79 | 1032.4 |
| 20260504213520 | 17 | 156 | 0.0 | 0.0 | 0.00 | 0.00 | 0.00 | 80 | 1032.4 |
| 20260504204021 | 15 | 168 | 0.0 | 0.0 | 0.00 | 0.00 | 0.00 | 83 | 1032.4 |
| 20260504180031 | 14 | 168 | 0.0 | 0.0 | 0.00 | 0.00 | 0.00 | 84 | 1031.9 |